User: anonymous   Login
Location: Veyrier
(46.1830°N, 6.2000°E)
Time: 03:19:51
(UTC+01:00)
Language:

Iridium 98 - Orbit

View from above orbital plane
View from above orbital plane
View from above satellite
View from above satellite

Ground track
Ground track

The orbit data is extracted from the following two-line orbital elements,

1 27451U 02031B   14332.37958422  .00000183  00000-0  58443-4 0  6074
2 27451 086.3978 051.7456 0002164 108.5043 297.0612 14.34213391657741
Epoch (UTC): 28 November 2014 09:06:36
Eccentricity: 0.0002164
inclination: 86.3978°
perigee height: 776 km
apogee height: 779 km
right ascension of ascending node: 51.7456°
argument of perigee: 108.5043°
revolutions per day: 14.34213391
mean anomaly at epoch: 297.0612°
orbit number at epoch: 65774

The dashed part of the orbit path shows where the satellite is in the earth's shadow,  

DLR